This demonstration page uses our WeatherBlox Daily Observations layout. Learn more.

Left ArrowRight Arrow

36.19886, -115.1175

Hourly Observations for April 11, 2021

Temp ( °F °C ) Dew Point ( °F °C ) Humidity (%) Winds ( mph kmh ) Pressure ( in mb ) Visibility ( mi km ) Precip ( " mm )
12:53 am 00:53 Clear 73 22.8 5 -15 7 7 NW 12 19 29.7 1006 10 16.0934 0 0
1:53 am 01:53 Clear 71 21.7 5 -15 7 7 NW 12 19 29.68 1005 10 16.0934 0 0
2:53 am 02:53 Clear 68 20 7 -13.9 9 9 NW 10 17 29.67 1005 10 16.0934 0 0
3:53 am 03:53 Clear 69 20.6 7 -13.9 9 9 NNW 15 24 29.66 1005 10 16.0934 0 0
4:53 am 04:53 Clear 68 20 7 -13.9 9 9 NNW 14 22 29.67 1005 10 16.0934 0 0
5:53 am 05:53 Clear 68 20 7 -13.9 9 9 NNW 14 22 29.69 1006 10 16.0934 0 0
6:53 am 06:53 Sunny 68 20 7 -13.9 9 9 NW 12 19 29.72 1007 10 16.0934 0 0
7:53 am 07:53 Sunny 71 21.7 9 -12.8 9 9 NW 12 19 29.74 1007 10 16.0934 0 0
8:53 am 08:53 Sunny 75 23.9 11 -11.7 8 8 N 8 13 29.75 1008 10 16.0934 0 0
9:53 am 09:53 Sunny 79 26.1 10 -12.2 7 7 NW 3 6 29.76 1008 10 16.0934 0 0
10:53 am 10:53 Sunny 81 27.2 11 -11.7 7 7 VRB 3 6 29.75 1007 10 16.0934 0 0
11:53 am 11:53 Sunny 84 28.9 11 -11.7 6 6 VRB 5 7 29.72 1007 10 16.0934 0 0
12:53 pm 12:53 Sunny 84 28.9 12 -11.1 6 6 S 7 11 29.69 1005 10 16.0934 0 0
1:53 pm 13:53 Sunny 86 30 11 -11.7 6 6 VRB 3 6 29.66 1004 10 16.0934 0 0
2:53 pm 14:53 Sunny 87 30.6 10 -12.2 5 5 SW 10 17 29.62 1003 10 16.0934 0 0
3:53 pm 15:53 Sunny 89 31.7 10 -12.2 5 5 NW 5 7 29.6 1002 10 16.0934 0 0
4:53 pm 16:53 Sunny 88 31.1 10 -12.2 5 5 NNW 9 15 29.59 1002 10 16.0934 0 0
5:53 pm 17:53 Sunny 88 31.1 10 -12.2 5 5 NNW 6 9 29.58 1002 10 16.0934 0 0
6:53 pm 18:53 Sunny 86 30 9 -12.8 5 5 Calm 29.58 1002 10 16.0934 0 0
7:53 pm 19:53 Clear 84 28.9 9 -12.8 6 6 Calm 29.59 1002 10 16.0934 0 0
8:53 pm 20:53 Clear 84 28.9 9 -12.8 6 6 Calm 29.6 1003 10 16.0934 0 0
9:53 pm 21:53 Clear 80 26.7 10 -12.2 7 7 Calm 29.62 1003 10 16.0934 0 0
10:53 pm 22:53 Clear 75 23.9 12 -11.1 9 9 NW 7 11 29.62 1003 10 16.0934 0 0
11:53 pm 23:53 Clear 70 21.1 14 -10 11 11 WNW 7 11 29.62 1003 10 16.0934 0 0

Powered by AerisWeather